This demonstration page uses our WeatherBlox Daily Observations layout. Learn more.

Left ArrowRight Arrow

39.01783, -85.05884

Hourly Observations for February 22, 2020

Temp ( °F °C ) Dew Point ( °F °C ) Humidity (%) Winds ( mph kmh ) Pressure ( in mb ) Visibility ( mi km ) Precip ( " mm )
12:52 am 00:52 Clear 26 -3.3 9 -12.8 48 48 SSW 8 13 30.45 1031 10 16.0934 0 0
1:52 am 01:52 Clear 24 -4.4 9 -12.8 52 52 SSW 7 11 30.44 1031 10 16.0934 0 0
2:52 am 02:52 Clear 22 -5.6 10 -12.2 60 60 S 6 9 30.43 1031 10 16.0934 0 0
3:52 am 03:52 Clear 22 -5.6 11 -11.7 63 63 SSW 5 7 30.43 1030 10 16.0934 0 0
4:52 am 04:52 Clear 22 -5.6 11 -11.7 63 63 SSW 5 7 30.43 1031 10 16.0934 0 0
5:52 am 05:52 Clear 20 -6.7 11 -11.7 68 68 SSW 5 7 30.44 1031 10 16.0934 0 0
6:52 am 06:52 Mostly Clear 21 -6.1 11 -11.7 65 65 SSW 6 9 30.45 1031 10 16.0934 0 0
7:52 am 07:52 Sunny 20 -6.7 13 -10.6 74 74 S 5 7 30.45 1031 10 16.0934 0 0
8:52 am 08:52 Sunny 28 -2.2 15 -9.4 58 58 SW 5 7 30.47 1032 10 16.0934 0 0
9:52 am 09:52 Sunny 33 0.6 16 -8.9 49 49 SSW 8 13 30.46 1031 10 16.0934 0 0
10:52 am 10:52 Sunny 36 2.2 16 -8.9 44 44 SSW 9 15 30.43 1030 10 16.0934 0 0
11:52 am 11:52 Sunny 40 4.4 15 -9.4 36 36 S 8 13 30.42 1030 10 16.0934 0 0
12:52 pm 12:52 Sunny 43 6.1 15 -9.4 32 32 SW 9 15 30.38 1029 10 16.0934 0 0
1:52 pm 13:52 Sunny 45 7.2 13 -10.6 27 27 SW 10 17 30.35 1028 10 16.0934 0 0
2:52 pm 14:52 Sunny 48 8.9 14 -10 25 25 SSW 12 19 30.32 1027 10 16.0934 0 0
3:52 pm 15:52 Sunny 49 9.4 11 -11.7 21 21 SSW 10 17 30.31 1026 10 16.0934 0 0
4:52 pm 16:52 Sunny 48 8.9 10 -12.2 21 21 SSW 14 22 30.29 1026 10 16.0934 0 0
5:52 pm 17:52 Sunny 45 7.2 10 -12.2 24 24 S 10 17 30.28 1025 10 16.0934 0 0
6:52 pm 18:52 Mostly Clear 41 5 11 -11.7 29 29 S 7 11 30.28 1025 10 16.0934 0 0
7:52 pm 19:52 Clear 38 3.3 13 -10.6 36 36 S 6 9 30.28 1025 10 16.0934 0 0
8:52 pm 20:52 Clear 36 2.2 12 -11.1 37 37 SSW 7 11 30.27 1025 10 16.0934 0 0
9:52 pm 21:52 Clear 36 2.2 11 -11.7 35 35 SSW 7 11 30.27 1025 10 16.0934 0 0
10:52 pm 22:52 Clear 35 1.7 12 -11.1 38 38 S 6 9 30.26 1025 10 16.0934 0 0
11:52 pm 23:52 Clear 34 1.1 13 -10.6 42 42 SSW 5 7 30.24 1024 10 16.0934 0 0

Powered by AerisWeather